DLH5XZ LPMA-EDDM

Flight info

Callsign DLH5XZ
Flight time N/A
Altitude 34000
Route DEGUN DCT GALPA DCT NARTA DCT ESUTI DCT MAZUK DCT PINOX/N0455F360 DCT TOSDI DCT ZMR DCT NEA DCT DGO DCT LPA DCT GOSVI DCT TOPTU DCT TOU DCT GAI DCT MEN DCT NINUN DCT LATAM DCT ETREK DCT LTP DCT SOPLO DCT OMASI DCT KINNI DCT LAMUR DCT KORED DCT BERSU DCT DITON/N0443F370 DCT NUNRI T103 BETOS BETOS1A
Aircraft A320/M-SDE3FGHIRWY/LB1

Departure

Time 2026-05-04 16:32
Airport Cristiano Ronaldo International Airport (LPMA)

Arrival

Time N/A
Airport Munich Airport (EDDM)
Time Latitude Longitude Altitude Speed Heading
2026-05-04 15:55 32.69411 -16.77592 177 ft 0 kts 138°
2026-05-04 16:19 32.69442 -16.77625 176 ft 4 kts 138°
2026-05-04 16:19 32.69452 -16.77659 176 ft 4 kts 46°
2026-05-04 16:20 32.69428 -16.77687 176 ft 0 kts 46°
2026-05-04 16:22 32.69454 -16.77655 176 ft 6 kts 46°
2026-05-04 16:22 32.69632 -16.77432 176 ft 19 kts 46°
2026-05-04 16:23 32.69886 -16.77177 176 ft 17 kts 360°
2026-05-04 16:24 32.70317 -16.76827 176 ft 24 kts 44°
2026-05-04 16:25 32.70559 -16.76545 176 ft 25 kts 44°
2026-05-04 16:26 32.70690 -16.76472 176 ft 0 kts 50°
2026-05-04 16:28 32.70693 -16.76464 176 ft 5 kts 61°
2026-05-04 16:29 32.70659 -16.76429 176 ft 0 kts 223°
2026-05-04 16:31 32.70008 -16.77191 176 ft 138 kts 225°
2026-05-04 16:32 32.67053 -16.79253 1757 ft 187 kts 174°
2026-05-04 16:33 32.64163 -16.79189 2274 ft 231 kts 185°
2026-05-04 16:33 32.60785 -16.78771 3382 ft 261 kts 149°
2026-05-04 16:34 32.59299 -16.74965 4853 ft 277 kts 83°
2026-05-04 16:34 32.59843 -16.72768 5642 ft 279 kts 71°
2026-05-04 16:35 32.61737 -16.66104 7862 ft 291 kts 72°
2026-05-04 16:35 32.63625 -16.59115 9985 ft 303 kts 71°
2026-05-04 16:36 32.64342 -16.56724 10364 ft 318 kts 65°
2026-05-04 16:36 32.67005 -16.52138 10635 ft 360 kts 43°
2026-05-04 16:37 32.70747 -16.47926 11542 ft 377 kts 42°
2026-05-04 16:37 32.72622 -16.45792 12113 ft 381 kts 42°
2026-05-04 16:37 32.76478 -16.41370 13352 ft 390 kts 42°
2026-05-04 16:38 32.80419 -16.36849 14468 ft 397 kts 42°
2026-05-04 16:39 32.86453 -16.29946 16064 ft 405 kts 42°
2026-05-04 16:39 32.90530 -16.25262 17139 ft 409 kts 43°
2026-05-04 16:40 32.94651 -16.20516 18117 ft 415 kts 43°
2026-05-04 16:40 32.98833 -16.15712 18953 ft 421 kts 42°
2026-05-04 16:41 33.03070 -16.10849 19562 ft 432 kts 42°
2026-05-04 16:41 33.08996 -16.04018 19895 ft 457 kts 43°
2026-05-04 16:42 33.16001 -15.95913 20372 ft 475 kts 43°
2026-05-04 16:43 33.20778 -15.90379 20891 ft 482 kts 42°
2026-05-04 16:43 33.25610 -15.84771 21430 ft 487 kts 42°
2026-05-04 16:43 33.28047 -15.81938 21675 ft 489 kts 42°
2026-05-04 16:44 33.37890 -15.70472 22628 ft 498 kts 42°
2026-05-04 16:45 33.42971 -15.64791 23078 ft 501 kts 35°
2026-05-04 16:46 33.51267 -15.57059 23861 ft 505 kts 36°
2026-05-04 16:46 33.56786 -15.51888 24495 ft 503 kts 36°
2026-05-04 16:47 33.62291 -15.46718 25088 ft 502 kts 36°
2026-05-04 16:47 33.67779 -15.41565 25690 ft 500 kts 36°
2026-05-04 16:48 33.75943 -15.33875 26632 ft 499 kts 36°
2026-05-04 16:48 33.78666 -15.31298 26947 ft 499 kts 36°
2026-05-04 16:49 33.84122 -15.26134 27501 ft 499 kts 36°
2026-05-04 16:49 33.89578 -15.20977 28098 ft 499 kts 36°
2026-05-04 16:50 33.95044 -15.15804 28700 ft 499 kts 36°
2026-05-04 16:50 34.00488 -15.10635 29300 ft 499 kts 36°
2026-05-04 16:51 34.05940 -15.05446 29907 ft 499 kts 35°
2026-05-04 16:51 34.08659 -15.02855 30255 ft 497 kts 35°
2026-05-04 16:51 34.14073 -14.97693 30809 ft 496 kts 35°
2026-05-04 16:52 34.19484 -14.92520 31343 ft 495 kts 35°
2026-05-04 16:52 34.22177 -14.89945 31598 ft 494 kts 35°
2026-05-04 16:53 34.27560 -14.84786 32117 ft 493 kts 35°
2026-05-04 16:53 34.35586 -14.77088 32899 ft 492 kts 34°
2026-05-04 16:54 34.38261 -14.74514 33187 ft 491 kts 34°
2026-05-04 16:55 34.47946 -14.62689 34082 ft 496 kts 43°
2026-05-04 16:55 34.52737 -14.56598 34161 ft 503 kts 43°
2026-05-04 16:56 34.64814 -14.41156 34175 ft 506 kts 43°
2026-05-04 16:57 34.72083 -14.31824 34165 ft 508 kts 43°
2026-05-04 16:58 34.81794 -14.19341 34162 ft 508 kts 42°
2026-05-04 17:00 34.96318 -14.00572 34190 ft 507 kts 42°
2026-05-04 17:01 35.08348 -13.84935 34169 ft 506 kts 42°
2026-05-04 17:02 35.17968 -13.72391 34167 ft 505 kts 42°
2026-05-04 17:03 35.25166 -13.62975 34166 ft 505 kts 42°
2026-05-04 17:03 35.32359 -13.53537 34166 ft 506 kts 42°
2026-05-04 17:04 35.41940 -13.40912 34189 ft 505 kts 42°
2026-05-04 17:05 35.51478 -13.28298 34202 ft 503 kts 42°
2026-05-04 17:06 35.58619 -13.18839 34163 ft 504 kts 43°
2026-05-04 17:07 35.64944 -13.10424 34176 ft 503 kts 43°
2026-05-04 17:07 35.70465 -13.03072 34171 ft 503 kts 42°
2026-05-04 17:08 35.77574 -12.93571 34168 ft 503 kts 43°
2026-05-04 17:09 35.82341 -12.87186 34179 ft 503 kts 42°
2026-05-04 17:09 35.87072 -12.80852 34176 ft 502 kts 42°
2026-05-04 17:10 35.98861 -12.64974 34173 ft 502 kts 42°
2026-05-04 17:11 36.03567 -12.58621 34166 ft 501 kts 42°
2026-05-04 17:12 36.10844 -12.49482 34187 ft 497 kts 37°
2026-05-04 17:13 36.23725 -12.35201 34161 ft 498 kts 37°
2026-05-04 17:14 36.33859 -12.23465 34160 ft 498 kts 37°
2026-05-04 17:15 36.41473 -12.14672 34171 ft 499 kts 37°
2026-05-04 17:16 36.51630 -12.02921 34167 ft 499 kts 37°
2026-05-04 17:17 36.61775 -11.91125 34158 ft 499 kts 37°
2026-05-04 17:18 36.71865 -11.79347 34172 ft 498 kts 37°
2026-05-04 17:19 36.81961 -11.67519 34156 ft 498 kts 37°
2026-05-04 17:20 36.92059 -11.55669 34179 ft 498 kts 38°
2026-05-04 17:20 36.99614 -11.46755 34169 ft 497 kts 38°
2026-05-04 17:21 37.09655 -11.34862 34164 ft 497 kts 38°
2026-05-04 17:22 37.14674 -11.28917 34168 ft 496 kts 38°
2026-05-04 17:23 37.24645 -11.17047 34181 ft 495 kts 39°
2026-05-04 17:24 37.32132 -11.08108 34168 ft 495 kts 39°
2026-05-04 17:25 37.42110 -10.96176 34160 ft 495 kts 39°
2026-05-04 17:26 37.52069 -10.84184 34162 ft 496 kts 38°